Location: Presov
(49.0000°N, 21.2500°E)
Time: 23:47:30
(UTC+01:00)

N. Korean satellite - Visible Passes

Search period start: 26 February 2021 00:00
Search period end: 08 March 2021 00:00
Orbit: 451 x 503 km, 97.2° (Epoch: 26 February)

Date Brightness Start Highest point End Pass type
(mag) Time Alt. Az. Time Alt. Az. Time Alt. Az.
26 Feb 9.8 03:59:27 10° ENE 04:01:04 13° E 04:02:44 10° ESE visible
26 Feb 6.6 05:31:17 10° N 05:34:41 51° WNW 05:38:06 10° SSW visible
27 Feb 6.7 05:04:29 10° NNE 05:07:59 75° ESE 05:11:31 10° S visible
28 Feb 8.3 04:37:57 10° NNE 04:41:11 34° E 04:44:27 10° SSE visible
01 Mar 9.5 04:11:49 10° NE 04:14:18 18° E 04:16:47 10° SE visible
01 Mar 7.1 05:44:30 10° N 05:47:44 36° WNW 05:51:00 10° SW visible
02 Mar 6.4 05:17:33 10° N 05:21:04 75° WNW 05:24:37 10° SSW visible
03 Mar 7.5 04:50:50 10° NNE 04:54:18 50° E 04:57:46 10° S visible
04 Mar 9.0 04:24:27 10° NE 04:27:26 25° E 04:30:26 10° SSE visible
05 Mar 9.8 03:58:44 10° ENE 04:00:28 13° E 04:02:12 10° ESE visible
05 Mar 6.7 05:30:36 10° N 05:34:04 52° WNW 05:37:33 10° SSW visible
06 Mar 6.8 05:03:46 10° NNE 05:07:20 74° ESE 05:10:55 10° S visible
07 Mar 8.3 04:37:11 10° NNE 04:40:30 35° E 04:43:50 10° SSE visible
